Location: ??????
(55.7522°N, 37.6156°E)
Time: 12:16:14
(UTC+00:00)

USA 229 DEB - Pass Details

Date: 17 December 2025
Orbit: 844 x 1364 km, 63.4° (Epoch: 10 January)

Event Time Altitude Azimuth Distance (km) Brightness Sun altitude
Exits shadow 03:44:55 23° 293° (WNW) 2,280 4.8 -16.5°
Maximum altitude 03:49:12 45° 236° (SW) 1,652 4.4 -15.9°
Drops below altitude 10° 03:56:49 10° 168° (SSE) 3,350 6.7 -14.9°
Sets 03:59:53 0° 162° (SSE) 4,355 7.5 -14.5°
